Powrót do katalogu

FENGYUN 2E AKM

AktywnyGEO
NORAD 33465·ROCKET BODY·🇨🇳 China

Wystrzelony Dec 23, 2008 z Xichang Satellite Launch Center

Loading…

TLE

ŚwieżeSource: Space-Track

Epoka: Sep 14, 2026, 19:22 UTC

1 33465U 08066C   26257.80763545 -.00000149  00000-0  00000-0 0  9996
2 33465  10.0158  43.3688 0032618 325.7445  34.1063  1.02096194 48450

Śledź FENGYUN 2E AKM w czasie rzeczywistym z AllMySat

Download on the App Store